Simultaneous Nadir Overpasses (SNOs) Predictions

Prediction of SNOs between GOES-15 and LANDSAT-8 Satellite Orbit:

Table of predicted SNOs for the next 14.0 days since TLE Epoch: 9/10/2022
Index Date Time (GOES-15) GOES-15 Lat,Lon LANDSAT-8 Lat,Lon Distance(km) Time Diff (sec)
1 09/11/2022 18:39:58 -0.27,-127.72 -0.50,-126.52 135.30 80
2 09/12/2022 07:01:23 0.30,-127.66 -0.57,-131.72 462.22 80
3 09/13/2022 18:27:48 -0.27,-127.67 -1.16,-123.57 465.99 80
4 09/14/2022 06:46:32 0.29,-127.60 0.03,-128.76 131.81 80
5 09/16/2022 06:34:21 0.28,-127.55 0.63,-125.80 198.20 80
6 09/16/2022 18:55:37 -0.30,-127.57 0.44,-130.96 385.70 80
7 09/18/2022 18:43:26 -0.29,-127.51 -0.17,-128.00 56.19 80
8 09/20/2022 18:33:55 -0.29,-127.44 -0.79,-125.04 272.81 80
9 09/21/2022 06:55:19 0.30,-127.39 -0.33,-130.23 323.56 80
10 09/23/2022 06:40:28 0.30,-127.32 0.30,-127.28 4.99 80
